Location: ?????????
(54.7630°N, 39.4991°E)
Time: 07:40:01
(UTC+00:00)

Cosmos 1302 Rocket - Pass Details

Date: 14 April 2026
Orbit: 752 x 771 km, 74.0° (Epoch: 9 May)

Event Time Altitude Azimuth Distance (km) Brightness Sun altitude
Exits shadow 23:29:15 38° 181° (S) 1,149 4.5 -20.2°
Maximum altitude 23:31:10 67° 112° (ESE) 821 4.1 -20.1°
Drops below altitude 10° 23:36:19 10° 31° (NNE) 2,289 7.7 -19.7°
Sets 23:38:42 0° 29° (NNE) 3,218 8.8 -19.5°
